Nautilus — OUYX2 — position and weather

sailwx.info

Track history (hours):
 
Tides and Currents Weather Stations Pressure Air Temp Water Temp Dewpoint Dewpoint Depression Visibility Wind Speed Wind Dir Waves Ship Positions

Nautilus

Last reported at 2014-Oct-22 09:33 UTC. Time now 2014-Oct-22 09:49 UTC.
Position N 55°27' E 012°40'.

Length 120 m; draft 6.9 m.

Type: Ship. MMSI: 219425000.

Date/timePositionNaut miles runAvg speedWind from/ knotsBaromVisibWave heightAir tempDewpointWater temp
2014-Oct-22 09:33N 55°27' E 012°40'10 9.7
2014-Oct-22 08:33N 55°36' E 012°42'9 9.4
2014-Oct-22 07:33N 55°46' E 012°41'1110.7
2014-Oct-22 06:33N 55°56' E 012°38'9 9.1
2014-Oct-22 05:33N 56°05' E 012°35'9 9.0
2014-Oct-22 04:33N 56°11' E 012°22'9 9.4
2014-Oct-22 03:33N 56°11' E 012°05'6 0.2
2014-Oct-20 23:33N 56°10' E 011°55'1212.2
2014-Oct-20 22:33N 56°12' E 012°17'1110.9
2014-Oct-20 21:33N 56°06' E 012°34'1010.0
2014-Oct-20 20:33N 55°58' E 012°42'1110.9
2014-Oct-20 19:33N 55°47' E 012°48'1110.9
2014-Oct-20 18:33N 55°39' E 013°00'1 0.9
2014-Oct-20 17:32N 55°38' E 013°01'0 0.0
2014-Oct-20 16:20N 55°38' E 013°01'0 0.0
2014-Oct-20 15:32N 55°38' E 013°01'0 0.0
2014-Oct-20 14:29N 55°38' E 013°01'0 0.0
2014-Oct-20 13:32N 55°38' E 013°01'0 0.0
2014-Oct-20 12:29N 55°38' E 013°01'0 0.0
2014-Oct-20 11:32N 55°38' E 013°01'0 0.0
2014-Oct-20 10:29N 55°38' E 013°01'0 0.0
2014-Oct-20 09:32N 55°38' E 013°01'0 0.0
2014-Oct-20 08:32N 55°38' E 013°01'0 0.0
2014-Oct-20 07:30N 55°38' E 013°01'4 4.6
2014-Oct-20 06:34N 55°41' E 012°56'1110.7
2014-Oct-20 05:34N 55°49' E 012°43'9 9.1
2014-Oct-20 04:34N 55°58' E 012°40'1111.3
2014-Oct-20 03:34N 56°08' E 012°29'1111.3
2014-Oct-20 02:34N 56°12' E 012°11'10 0.4
2014-Oct-18 21:34N 56°10' E 011°53'1110.7
2014-Oct-18 20:34N 56°13' E 012°11'1211.9
2014-Oct-18 19:34N 56°08' E 012°31'1413.5
2014-Oct-18 18:33N 55°56' E 012°44'1212.3
2014-Oct-18 17:34N 55°45' E 012°51'1010.1
2014-Oct-18 16:33N 55°35' E 012°50'1312.6
2014-Oct-18 15:34N 55°23' E 012°41'1010.1
2014-Oct-18 14:34N 55°16' E 012°54'1212.4
2014-Oct-18 13:33N 55°15' E 013°15'3712.3
2014-Oct-18 10:34N 55°16' E 014°20'1311.9
2014-Oct-18 09:30N 55°26' E 014°34'1112.2
2014-Oct-18 08:33N 55°32' E 014°51'1212.1
2014-Oct-18 07:32N 55°39' E 015°10'3712.5
2014-Oct-18 04:34N 55°57' E 016°08'1312.7
2014-Oct-18 03:32N 56°04' E 016°28'21010.8
2014-Oct-17 08:05N 59°23' E 018°27'4 7.1
2014-Oct-17 07:32N 59°22' E 018°19'6 1.4
2014-Oct-17 03:13N 59°21' E 018°08'0 0.0
2014-Oct-17 01:07N 59°21' E 018°08'0 0.0
2014-Oct-17 00:31N 59°21' E 018°08'0 0.0
2014-Oct-16 23:28N 59°21' E 018°08'0 0.0
2014-Oct-16 22:22N 59°21' E 018°08'0 0.0
2014-Oct-16 21:22N 59°21' E 018°08'0 0.0
2014-Oct-16 20:22N 59°21' E 018°08'0 0.0
2014-Oct-16 19:22N 59°21' E 018°08'0 0.0
2014-Oct-16 18:31N 59°21' E 018°08'0 0.0
2014-Oct-16 17:19N 59°21' E 018°08'0 0.0
2014-Oct-16 16:34N 59°21' E 018°08'8 7.8
2014-Oct-16 15:31N 59°22' E 018°24'59 5.2
2014-Oct-16 04:12N 58°38' E 017°08'811.7
2014-Oct-16 03:31N 58°36' E 016°53'1111.1
2014-Oct-16 02:34N 58°39' E 016°33'9 9.4
2014-Oct-16 01:34N 58°37' E 016°15'0 0.0
2014-Oct-16 00:33N 58°37' E 016°15'0 0.0
2014-Oct-15 23:33N 58°37' E 016°15'0 0.0
2014-Oct-15 22:30N 58°37' E 016°15'0 0.0
2014-Oct-15 21:33N 58°37' E 016°15'0 0.0
2014-Oct-15 20:33N 58°37' E 016°15'0 0.0
2014-Oct-15 19:33N 58°37' E 016°15'0 0.0
2014-Oct-15 18:33N 58°37' E 016°15'0 0.0
2014-Oct-15 17:33N 58°37' E 016°15'7 6.8
2014-Oct-15 16:34N 58°39' E 016°27'1212.0
2014-Oct-15 15:34N 58°37' E 016°50'188 9.2
2014-Oct-14 19:11N 55°36' E 015°17'812.1
2014-Oct-14 18:29N 55°32' E 015°04'1212.3
2014-Oct-14 17:33N 55°26' E 014°46'1211.8
2014-Oct-14 16:34N 55°18' E 014°31'1111.0
2014-Oct-14 15:34N 55°11' E 014°17'3712.1
2014-Oct-14 12:29N 55°12' E 013°12'1112.1
2014-Oct-14 11:33N 55°14' E 012°53'1010.3
2014-Oct-14 10:33N 55°21' E 012°39'1212.3
2014-Oct-14 09:33N 55°33' E 012°42'1212.1
2014-Oct-14 08:34N 55°45' E 012°41'1212.1
2014-Oct-14 07:34N 55°57' E 012°39'1111.4
2014-Oct-14 06:33N 56°07' E 012°30'1211.9
2014-Oct-14 05:34N 56°18' E 012°21'1312.6
2014-Oct-14 04:33N 56°31' E 012°15'1312.7
2014-Oct-14 03:33N 56°43' E 012°09'1312.7
2014-Oct-14 02:33N 56°55' E 012°02'1212.5
2014-Oct-14 01:33N 57°07' E 011°55'1312.6
2014-Oct-14 00:33N 57°19' E 011°47'1212.5
2014-Oct-13 23:34N 57°30' E 011°39'1111.0
2014-Oct-13 22:34N 57°40' E 011°48'3 2.8
2014-Oct-13 21:33N 57°41' E 011°52'0 0.0
2014-Oct-13 20:33N 57°41' E 011°52'0 0.0
2014-Oct-13 19:32N 57°41' E 011°52'0 0.0
2014-Oct-13 18:32N 57°41' E 011°52'0 0.0
2014-Oct-13 17:29N 57°41' E 011°52'3 2.9
2014-Oct-13 16:34N 57°40' E 011°48'9 9.2
2014-Oct-13 15:34N 57°39' E 011°31'1212.4
2014-Oct-13 14:34N 57°50' E 011°22'1211.9
2014-Oct-13 13:34N 58°02' E 011°17'1110.7
2014-Oct-13 12:34N 58°12' E 011°14'1110.7
2014-Oct-13 11:34N 58°21' E 011°25'1 0.7
2014-Oct-13 10:31N 58°21' E 011°26'0 0.0
2014-Oct-13 09:31N 58°21' E 011°26'0 0.0
2014-Oct-13 08:25N 58°21' E 011°26'0 0.0
2014-Oct-13 07:31N 58°21' E 011°26'0 0.0
2014-Oct-13 06:31N 58°21' E 011°26'0 0.0
2014-Oct-13 05:28N 58°21' E 011°26'0 0.0
2014-Oct-13 04:31N 58°21' E 011°26'0 0.0
2014-Oct-13 03:31N 58°21' E 011°26'0 0.0
2014-Oct-13 02:28N 58°21' E 011°26'0 0.0
2014-Oct-13 01:28N 58°21' E 011°26'0 0.0
2014-Oct-13 00:31N 58°21' E 011°26'0 0.0
2014-Oct-12 23:31N 58°21' E 011°26'1 0.6
2014-Oct-12 22:33N 58°21' E 011°25'10 9.8
2014-Oct-12 21:33N 58°14' E 011°13'10 9.6
2014-Oct-12 20:33N 58°04' E 011°15'1313.3
2014-Oct-12 19:34N 57°51' E 011°18'1312.8
2014-Oct-12 18:33N 57°38' E 011°22'1212.3
2014-Oct-12 17:34N 57°29' E 011°36'1312.7
2014-Oct-12 16:34N 57°18' E 011°48'1312.8
2014-Oct-12 15:34N 57°06' E 011°58'1313.0
2014-Oct-12 14:33N 56°54' E 012°05'1312.7
2014-Oct-12 13:33N 56°42' E 012°11'1212.5
2014-Oct-12 12:33N 56°30' E 012°18'1212.1
2014-Oct-12 11:34N 56°18' E 012°24'1313.0
2014-Oct-12 10:33N 56°06' E 012°34'  
Track history (hours):
 
Tides and Currents Weather Stations Pressure Air Temp Water Temp Dewpoint Dewpoint Depression Visibility Wind Speed Wind Dir Waves Ship Positions

Nautilus

Last reported at 2014-Oct-22 09:33 UTC. Time now 2014-Oct-22 09:49 UTC.
Position N 55°27' E 012°40'.

Length 120 m; draft 6.9 m.

Type: Ship. MMSI: 219425000.

Date/timePositionNaut miles runAvg speedWind from/ knotsBaromVisibWave heightAir tempDewpointWater temp
2014-Oct-22 09:33N 55°27' E 012°40'10 9.7
2014-Oct-22 08:33N 55°36' E 012°42'9 9.4
2014-Oct-22 07:33N 55°46' E 012°41'1110.7
2014-Oct-22 06:33N 55°56' E 012°38'9 9.1
2014-Oct-22 05:33N 56°05' E 012°35'9 9.0
2014-Oct-22 04:33N 56°11' E 012°22'9 9.4
2014-Oct-22 03:33N 56°11' E 012°05'6 0.2
2014-Oct-20 23:33N 56°10' E 011°55'1212.2
2014-Oct-20 22:33N 56°12' E 012°17'1110.9
2014-Oct-20 21:33N 56°06' E 012°34'1010.0
2014-Oct-20 20:33N 55°58' E 012°42'1110.9
2014-Oct-20 19:33N 55°47' E 012°48'1110.9
2014-Oct-20 18:33N 55°39' E 013°00'1 0.9
2014-Oct-20 17:32N 55°38' E 013°01'0 0.0
2014-Oct-20 16:20N 55°38' E 013°01'0 0.0
2014-Oct-20 15:32N 55°38' E 013°01'0 0.0
2014-Oct-20 14:29N 55°38' E 013°01'0 0.0
2014-Oct-20 13:32N 55°38' E 013°01'0 0.0
2014-Oct-20 12:29N 55°38' E 013°01'0 0.0
2014-Oct-20 11:32N 55°38' E 013°01'0 0.0
2014-Oct-20 10:29N 55°38' E 013°01'0 0.0
2014-Oct-20 09:32N 55°38' E 013°01'0 0.0
2014-Oct-20 08:32N 55°38' E 013°01'0 0.0
2014-Oct-20 07:30N 55°38' E 013°01'4 4.6
2014-Oct-20 06:34N 55°41' E 012°56'1110.7
2014-Oct-20 05:34N 55°49' E 012°43'9 9.1
2014-Oct-20 04:34N 55°58' E 012°40'1111.3
2014-Oct-20 03:34N 56°08' E 012°29'1111.3
2014-Oct-20 02:34N 56°12' E 012°11'10 0.4
2014-Oct-18 21:34N 56°10' E 011°53'1110.7
2014-Oct-18 20:34N 56°13' E 012°11'1211.9
2014-Oct-18 19:34N 56°08' E 012°31'1413.5
2014-Oct-18 18:33N 55°56' E 012°44'1212.3
2014-Oct-18 17:34N 55°45' E 012°51'1010.1
2014-Oct-18 16:33N 55°35' E 012°50'1312.6
2014-Oct-18 15:34N 55°23' E 012°41'1010.1
2014-Oct-18 14:34N 55°16' E 012°54'1212.4
2014-Oct-18 13:33N 55°15' E 013°15'3712.3
2014-Oct-18 10:34N 55°16' E 014°20'1311.9
2014-Oct-18 09:30N 55°26' E 014°34'1112.2
2014-Oct-18 08:33N 55°32' E 014°51'1212.1
2014-Oct-18 07:32N 55°39' E 015°10'3712.5
2014-Oct-18 04:34N 55°57' E 016°08'1312.7
2014-Oct-18 03:32N 56°04' E 016°28'21010.8
2014-Oct-17 08:05N 59°23' E 018°27'4 7.1
2014-Oct-17 07:32N 59°22' E 018°19'6 1.4
2014-Oct-17 03:13N 59°21' E 018°08'0 0.0
2014-Oct-17 01:07N 59°21' E 018°08'0 0.0
2014-Oct-17 00:31N 59°21' E 018°08'0 0.0
2014-Oct-16 23:28N 59°21' E 018°08'0 0.0
2014-Oct-16 22:22N 59°21' E 018°08'0 0.0
2014-Oct-16 21:22N 59°21' E 018°08'0 0.0
2014-Oct-16 20:22N 59°21' E 018°08'0 0.0
2014-Oct-16 19:22N 59°21' E 018°08'0 0.0
2014-Oct-16 18:31N 59°21' E 018°08'0 0.0
2014-Oct-16 17:19N 59°21' E 018°08'0 0.0
2014-Oct-16 16:34N 59°21' E 018°08'8 7.8
2014-Oct-16 15:31N 59°22' E 018°24'59 5.2
2014-Oct-16 04:12N 58°38' E 017°08'811.7
2014-Oct-16 03:31N 58°36' E 016°53'1111.1
2014-Oct-16 02:34N 58°39' E 016°33'9 9.4
2014-Oct-16 01:34N 58°37' E 016°15'0 0.0
2014-Oct-16 00:33N 58°37' E 016°15'0 0.0
2014-Oct-15 23:33N 58°37' E 016°15'0 0.0
2014-Oct-15 22:30N 58°37' E 016°15'0 0.0
2014-Oct-15 21:33N 58°37' E 016°15'0 0.0
2014-Oct-15 20:33N 58°37' E 016°15'0 0.0
2014-Oct-15 19:33N 58°37' E 016°15'0 0.0
2014-Oct-15 18:33N 58°37' E 016°15'0 0.0
2014-Oct-15 17:33N 58°37' E 016°15'7 6.8
2014-Oct-15 16:34N 58°39' E 016°27'1212.0
2014-Oct-15 15:34N 58°37' E 016°50'188 9.2
2014-Oct-14 19:11N 55°36' E 015°17'812.1
2014-Oct-14 18:29N 55°32' E 015°04'1212.3
2014-Oct-14 17:33N 55°26' E 014°46'1211.8
2014-Oct-14 16:34N 55°18' E 014°31'1111.0
2014-Oct-14 15:34N 55°11' E 014°17'3712.1
2014-Oct-14 12:29N 55°12' E 013°12'1112.1
2014-Oct-14 11:33N 55°14' E 012°53'1010.3
2014-Oct-14 10:33N 55°21' E 012°39'1212.3
2014-Oct-14 09:33N 55°33' E 012°42'1212.1
2014-Oct-14 08:34N 55°45' E 012°41'1212.1
2014-Oct-14 07:34N 55°57' E 012°39'1111.4
2014-Oct-14 06:33N 56°07' E 012°30'1211.9
2014-Oct-14 05:34N 56°18' E 012°21'1312.6
2014-Oct-14 04:33N 56°31' E 012°15'1312.7
2014-Oct-14 03:33N 56°43' E 012°09'1312.7
2014-Oct-14 02:33N 56°55' E 012°02'1212.5
2014-Oct-14 01:33N 57°07' E 011°55'1312.6
2014-Oct-14 00:33N 57°19' E 011°47'1212.5
2014-Oct-13 23:34N 57°30' E 011°39'1111.0
2014-Oct-13 22:34N 57°40' E 011°48'3 2.8
2014-Oct-13 21:33N 57°41' E 011°52'0 0.0
2014-Oct-13 20:33N 57°41' E 011°52'0 0.0
2014-Oct-13 19:32N 57°41' E 011°52'0 0.0
2014-Oct-13 18:32N 57°41' E 011°52'0 0.0
2014-Oct-13 17:29N 57°41' E 011°52'3 2.9
2014-Oct-13 16:34N 57°40' E 011°48'9 9.2
2014-Oct-13 15:34N 57°39' E 011°31'1212.4
2014-Oct-13 14:34N 57°50' E 011°22'1211.9
2014-Oct-13 13:34N 58°02' E 011°17'1110.7
2014-Oct-13 12:34N 58°12' E 011°14'1110.7
2014-Oct-13 11:34N 58°21' E 011°25'1 0.7
2014-Oct-13 10:31N 58°21' E 011°26'0 0.0
2014-Oct-13 09:31N 58°21' E 011°26'0 0.0
2014-Oct-13 08:25N 58°21' E 011°26'0 0.0
2014-Oct-13 07:31N 58°21' E 011°26'0 0.0
2014-Oct-13 06:31N 58°21' E 011°26'0 0.0
2014-Oct-13 05:28N 58°21' E 011°26'0 0.0
2014-Oct-13 04:31N 58°21' E 011°26'0 0.0
2014-Oct-13 03:31N 58°21' E 011°26'0 0.0
2014-Oct-13 02:28N 58°21' E 011°26'0 0.0
2014-Oct-13 01:28N 58°21' E 011°26'0 0.0
2014-Oct-13 00:31N 58°21' E 011°26'0 0.0
2014-Oct-12 23:31N 58°21' E 011°26'1 0.6
2014-Oct-12 22:33N 58°21' E 011°25'10 9.8
2014-Oct-12 21:33N 58°14' E 011°13'10 9.6
2014-Oct-12 20:33N 58°04' E 011°15'1313.3
2014-Oct-12 19:34N 57°51' E 011°18'1312.8
2014-Oct-12 18:33N 57°38' E 011°22'1212.3
2014-Oct-12 17:34N 57°29' E 011°36'1312.7
2014-Oct-12 16:34N 57°18' E 011°48'1312.8
2014-Oct-12 15:34N 57°06' E 011°58'1313.0
2014-Oct-12 14:33N 56°54' E 012°05'1312.7
2014-Oct-12 13:33N 56°42' E 012°11'1212.5
2014-Oct-12 12:33N 56°30' E 012°18'1212.1
2014-Oct-12 11:34N 56°18' E 012°24'1313.0
2014-Oct-12 10:33N 56°06' E 012°34'  

Dump ship's entire track history